ZK4808 VOMM-VOTX

Flight info

Callsign ZK4808
Flight time 0h -8m
Altitude 3000
Route MMV
Aircraft H64/M-SDFHY/C

Departure

Time 2026-04-27 05:24
Airport Chennai International Airport (VOMM)

Arrival

Time 2026-04-27 05:16
Airport Tambaram Air Force Station (VOTX)
Time Latitude Longitude Altitude Speed Heading
2026-04-27 05:16 12.99203 80.17927 48 ft 0 kts 159°
2026-04-27 05:17 12.99203 80.17928 48 ft 0 kts 159°
2026-04-27 05:22 12.99619 80.18368 98 ft 25 kts 304°
2026-04-27 05:23 12.99531 80.18296 49 ft 5 kts 256°
2026-04-27 05:23 12.99419 80.17995 50 ft 49 kts 258°
2026-04-27 05:23 12.99379 80.17866 49 ft 0 kts 249°
2026-04-27 05:23 12.99379 80.17867 50 ft 0 kts 246°
2026-04-27 05:24 12.99301 80.17618 131 ft 90 kts 247°
2026-04-27 05:24 12.99018 80.16890 135 ft 123 kts 246°
2026-04-27 05:24 12.98745 80.16077 487 ft 110 kts 247°
2026-04-27 05:24 12.98386 80.15408 917 ft 113 kts 208°
2026-04-27 05:25 12.97545 80.15453 1023 ft 121 kts 167°
2026-04-27 05:25 12.96784 80.15578 1008 ft 108 kts 178°
2026-04-27 05:25 12.96022 80.15557 1004 ft 107 kts 176°
2026-04-27 05:25 12.95289 80.15607 998 ft 106 kts 174°
2026-04-27 05:26 12.94560 80.15685 1013 ft 106 kts 171°
2026-04-27 05:26 12.93876 80.15707 1019 ft 106 kts 177°
2026-04-27 05:26 12.93125 80.15641 1010 ft 112 kts 191°
2026-04-27 05:26 12.92484 80.15176 939 ft 119 kts 218°
2026-04-27 05:27 12.91886 80.14546 775 ft 123 kts 208°
2026-04-27 05:27 12.91052 80.14378 553 ft 122 kts 182°
2026-04-27 05:27 12.90365 80.14009 634 ft 111 kts 237°
2026-04-27 05:27 12.90033 80.13184 232 ft 133 kts 271°
2026-04-27 05:28 12.90474 80.12381 181 ft 118 kts 288°
2026-04-27 05:28 12.90655 80.11736 91 ft 55 kts 281°
2026-04-27 05:28 12.90806 80.11610 302 ft 54 kts 330°
2026-04-27 05:28 12.90967 80.11566 93 ft 0 kts 326°
2026-04-27 05:29 12.90971 80.11571 241 ft 10 kts 331°
2026-04-27 05:29 12.90966 80.11579 119 ft 9 kts 315°
2026-04-27 05:29 12.90997 80.11539 130 ft 5 kts 307°
2026-04-27 05:29 12.91010 80.11541 92 ft 0 kts 306°